Language: 


Des rapports , des résumés tant et plus, au choix de chacun....


Données Historiques de Météogheer
Journalier Rapport pour Novembre 18, 2017 Unitée:  Impériale    Métrique   Les deux
Suivant Jour »
Journalier Hebdomadaire Mensuel Annuel Sur mesure
  Max: Min: Moyenne:
Température: 51.3 °F 31.1 °F 40.1 °F
Point de rosée: 48.2 °F 30.2 °F 39.6 °F
Humidité: 98% 0% 96%
Vent: 6.5mph 0mph 2.5mph
Rafales: 6.5mph - -
Vent- - WSW
Pression: 30.3 in 0 in -
Pluie: 0.16 in    
Historical Graphs
 
 
Données tabulaires pour Novembre 18, 2017
Heure Température Point de rosée Pression Vent Vent Rafales Humidité Pluie Taux (Horaire) Conditions
00:02 34.5 °F 33.8 °F 30.3 in Calm     98% 0 in
00:09 34.5 °F 33.8 °F 30.3 in Calm     98% 0 in
00:14 34.5 °F 33.8 °F 30.3 in Calm     98% 0 in
00:19 34.7 °F 35.6 °F 30.3 in Calm     98% 0 in
00:24 34.5 °F 33.8 °F 30.3 in Calm     98% 0 in
00:29 34.3 °F 33.8 °F 30.3 in Calm     98% 0 in
00:34 34.3 °F 33.8 °F 30.3 in Calm     98% 0 in
00:39 34.3 °F 33.8 °F 30.3 in Calm     98% 0 in
00:44 33.6 °F 33.8 °F 30.3 in Calm     98% 0 in
00:49 33.1 °F 33.8 °F 30.3 in Calm     98% 0 in
00:54 33.1 °F 33.8 °F 30.3 in Calm     98% 0 in
00:59 32.9 °F 33.8 °F 30.3 in Calm     98% 0 in
01:00 32.9 °F 33.8 °F 30.3 in Calm     98% 0 in
01:04 32.7 °F 33.8 °F 30.3 in Calm     98% 0 in
01:09 32.7 °F 33.8 °F 30.3 in Calm     98% 0 in
01:14 32.7 °F 33.8 °F 30.3 in Calm     98% 0 in
01:19 32.5 °F 33.8 °F 30.3 in Calm     98% 0 in
01:24 32.5 °F 33.8 °F 30.3 in Calm     98% 0 in
01:29 32.5 °F 33.8 °F 30.3 in Calm     98% 0 in
01:34 32.7 °F 33.8 °F 30.3 in Calm     98% 0 in
01:39 32.5 °F 33.8 °F 30.3 in Calm     98% 0 in
01:44 32.4 °F 32 °F 30.2 in Calm     98% 0 in
01:49 32.4 °F 32 °F 30.2 in Calm     98% 0 in
01:54 32.7 °F 33.8 °F 30.2 in Calm     98% 0 in
01:59 33.1 °F 33.8 °F 30.3 in Calm     98% 0 in
02:04 33.1 °F 33.8 °F 30.3 in Calm     98% 0 in
02:09 32.9 °F 33.8 °F 30.3 in Calm     98% 0 in
02:15 32.7 °F 33.8 °F 30.3 in Calm     98% 0 in
02:20 33.1 °F 33.8 °F 30.3 in Calm     98% 0 in
02:25 33.1 °F 33.8 °F 30.3 in Calm     98% 0 in
02:30 33.3 °F 33.8 °F 30.3 in Calm     98% 0 in
02:35 33.3 °F 33.8 °F 30.3 in Calm     98% 0 in
02:40 33.1 °F 33.8 °F 30.3 in Calm     98% 0 in
02:45 32.7 °F 33.8 °F 30.3 in Calm     98% 0 in
02:50 32.7 °F 33.8 °F 30.3 in Calm     98% 0 in
02:55 32.7 °F 33.8 °F 30.3 in Calm     98% 0 in
03:02 32 °F 33.8 °F 0 in Calm     0% 0 in
03:07 32.7 °F 33.8 °F 30.3 in Calm     98% 0 in
03:12 32.5 °F 33.8 °F 30.3 in Calm     98% 0 in
03:25 32.2 °F 32 °F 30.3 in Calm     98% 0 in
03:30 32.4 °F 32 °F 30.3 in Calm     98% 0 in
03:35 32.5 °F 33.8 °F 30.3 in Calm     98% 0 in
03:40 32.5 °F 33.8 °F 30.3 in Calm     98% 0 in
03:45 32.7 °F 33.8 °F 30.2 in Calm     98% 0 in
03:50 32.7 °F 33.8 °F 30.2 in Calm     98% 0 in
03:55 32.7 °F 33.8 °F 30.2 in Calm     98% 0 in
04:00 32.5 °F 33.8 °F 30.2 in Calm     98% 0 in
04:05 32.5 °F 33.8 °F 30.2 in Calm     98% 0 in
04:10 32.2 °F 32 °F 30.2 in Calm     98% 0 in
04:16 32 °F 30.2 °F 30.2 in Calm     98% 0 in
04:21 32 °F 30.2 °F 30.2 in Calm     98% 0 in
04:25 32 °F 30.2 °F 30.2 in Calm     98% 0 in
04:26 32 °F 30.2 °F 30.2 in Calm     98% 0 in
04:27 32 °F 30.2 °F 30.2 in Calm     98% 0 in
04:36 31.5 °F 30.2 °F 30.2 in Calm     98% 0 in
04:41 31.5 °F 30.2 °F 30.2 in Calm     98% 0 in
04:46 31.3 °F 30.2 °F 30.2 in Calm     98% 0 in
04:51 31.3 °F 30.2 °F 30.2 in Calm     98% 0 in
04:56 31.1 °F 30.2 °F 30.2 in Calm     98% 0 in
05:01 31.1 °F 30.2 °F 30.2 in Calm     98% 0 in
05:06 31.1 °F 30.2 °F 30.2 in Calm     98% 0 in
05:11 31.1 °F 30.2 °F 30.2 in Calm     98% 0 in
05:16 31.3 °F 30.2 °F 30.2 in Calm     98% 0 in
05:21 31.3 °F 30.2 °F 30.2 in Calm     98% 0 in
05:26 31.5 °F 30.2 °F 30.2 in Calm     98% 0 in
05:31 31.6 °F 30.2 °F 30.2 in Calm     98% 0 in
05:36 32 °F 30.2 °F 30.2 in Calm     98% 0 in
05:41 32 °F 30.2 °F 30.2 in Calm     98% 0 in
05:46 32.2 °F 32 °F 30.2 in Calm     98% 0 in
05:51 32 °F 30.2 °F 30.2 in Calm     98% 0 in
05:56 31.8 °F 30.2 °F 30.2 in Calm     98% 0 in
06:01 31.8 °F 30.2 °F 30.2 in Calm     98% 0 in
06:06 31.6 °F 30.2 °F 30.2 in Calm     98% 0 in
06:11 31.3 °F 30.2 °F 30.2 in Calm     98% 0 in
06:16 31.3 °F 30.2 °F 30.2 in Calm     98% 0 in
06:21 31.3 °F 30.2 °F 30.2 in Calm     98% 0 in
06:26 31.3 °F 30.2 °F 30.2 in Calm     98% 0 in
06:31 31.3 °F 30.2 °F 30.2 in Calm     98% 0 in
06:36 31.3 °F 30.2 °F 30.2 in Calm     98% 0 in
06:41 31.1 °F 30.2 °F 30.2 in Calm     98% 0 in
06:46 31.3 °F 30.2 °F 30.2 in Calm     98% 0 in
06:51 31.5 °F 30.2 °F 30.2 in Calm     98% 0 in
06:56 31.6 °F 30.2 °F 30.2 in Calm     98% 0 in
07:01 31.6 °F 30.2 °F 30.2 in Calm     98% 0 in
07:06 32 °F 30.2 °F 30.2 in Calm     98% 0 in
07:11 32.2 °F 32 °F 30.2 in Calm     98% 0 in
07:16 32.4 °F 32 °F 30.2 in Calm     98% 0 in
07:21 32.5 °F 33.8 °F 30.2 in Calm     98% 0 in
07:27 32.7 °F 33.8 °F 30.2 in Calm     98% 0 in
07:32 32.7 °F 33.8 °F 30.2 in Calm     98% 0 in
07:37 32.9 °F 33.8 °F 30.2 in Calm     98% 0 in
07:42 32.9 °F 33.8 °F 30.2 in Calm     98% 0 in
07:47 33.1 °F 33.8 °F 30.2 in Calm     98% 0 in
07:52 33.3 °F 33.8 °F 30.2 in Calm     98% 0 in
07:57 33.3 °F 33.8 °F 30.2 in Calm     98% 0 in
08:02 33.4 °F 33.8 °F 30.2 in Calm     98% 0 in
08:07 33.4 °F 33.8 °F 30.2 in Calm     98% 0 in
08:12 33.6 °F 33.8 °F 30.2 in Calm     98% 0 in
08:17 33.6 °F 33.8 °F 30.2 in Calm     98% 0 in
08:22 33.6 °F 33.8 °F 30.2 in Calm     98% 0 in
08:27 33.6 °F 33.8 °F 30.2 in Calm     98% 0 in
08:32 33.8 °F 33.8 °F 30.2 in Calm     98% 0 in
08:37 33.8 °F 33.8 °F 30.2 in Calm     98% 0 in
08:42 34 °F 33.8 °F 30.2 in Calm     98% 0 in
08:47 34 °F 33.8 °F 30.2 in Calm     98% 0 in
08:52 34.2 °F 33.8 °F 30.2 in Calm     98% 0 in
08:57 34.3 °F 33.8 °F 30.2 in Calm     98% 0 in
09:02 34.5 °F 33.8 °F 30.2 in Calm     98% 0 in
09:07 34.7 °F 35.6 °F 30.2 in Calm     98% 0 in
09:12 34.7 °F 35.6 °F 30.2 in Calm     98% 0 in
09:17 35.1 °F 35.6 °F 30.2 in Calm     98% 0 in
09:22 35.4 °F 35.6 °F 30.2 in Calm     98% 0 in
09:27 35.4 °F 35.6 °F 30.2 in Calm     98% 0 in
09:32 35.4 °F 35.6 °F 30.2 in Calm     98% 0 in
09:37 35.4 °F 35.6 °F 30.2 in Calm     98% 0 in
09:42 35.4 °F 35.6 °F 30.2 in Calm     98% 0 in
09:47 35.4 °F 35.6 °F 30.2 in Calm     98% 0 in
09:52 35.4 °F 35.6 °F 30.2 in Calm     98% 0 in
09:57 35.4 °F 35.6 °F 30.2 in Calm     98% 0 in
10:02 35.4 °F 35.6 °F 30.2 in Calm     98% 0 in
10:07 35.4 °F 35.6 °F 30.2 in Calm     98% 0 in
10:12 35.4 °F 35.6 °F 30.2 in Calm     98% 0 in
10:17 35.4 °F 35.6 °F 30.2 in Calm     98% 0 in
10:22 35.4 °F 35.6 °F 30.2 in Calm     98% 0 in
10:27 35.4 °F 35.6 °F 30.2 in Calm     98% 0 in
10:32 35.4 °F 35.6 °F 30.2 in Calm     98% 0 in
10:37 35.4 °F 35.6 °F 30.2 in Calm     98% 0 in
10:42 35.4 °F 35.6 °F 30.2 in Calm     98% 0 in
10:47 35.4 °F 35.6 °F 30.2 in Calm     98% 0 in
10:53 35.4 °F 35.6 °F 30.2 in Calm     98% 0 in
10:58 35.4 °F 35.6 °F 30.2 in Calm     98% 0 in
11:03 35.4 °F 35.6 °F 30.2 in Calm     98% 0.01 in
11:08 35.4 °F 35.6 °F 30.2 in Calm     98% 0.01 in
11:13 35.4 °F 35.6 °F 30.2 in Calm     98% 0.01 in
11:18 35.4 °F 35.6 °F 30.2 in Calm     98% 0.01 in
11:23 35.4 °F 35.6 °F 30.2 in Calm     98% 0.01 in
11:28 35.4 °F 35.6 °F 30.2 in Calm     98% 0.01 in
11:33 35.4 °F 35.6 °F 30.2 in Calm     98% 0.01 in
11:35 35.4 °F 35.6 °F 30.2 in Calm     98% 0.01 in
11:40 35.4 °F 35.6 °F 30.2 in Calm     98% 0.01 in
11:46 35.4 °F 35.6 °F 30.2 in Calm     98% 0.01 in
11:51 35.4 °F 35.6 °F 30.2 in Calm     98% 0.01 in
11:56 35.4 °F 35.6 °F 30.2 in Calm     98% 0.01 in
12:01 35.4 °F 35.6 °F 30.2 in Calm     98% 0 in
12:06 35.4 °F 35.6 °F 30.2 in Calm     98% 0 in
12:11 35.4 °F 35.6 °F 30.2 in Calm     98% 0 in
12:16 35.4 °F 35.6 °F 30.2 in Calm     98% 0 in
12:17 35.4 °F 35.6 °F 30.2 in Calm     98% 0 in
12:22 35.4 °F 35.6 °F 30.2 in Calm     98% 0 in
12:27 48.7 °F 44.6 °F 30.2 in Calm     82% 0 in
12:32 48.7 °F 44.6 °F 30.2 in Calm     82% 0 in
12:37 48.7 °F 44.6 °F 30.2 in Calm     82% 0 in
12:42 48.7 °F 44.6 °F 30.2 in Calm     82% 0 in
12:47 48.7 °F 44.6 °F 30.2 in Calm     82% 0 in
12:52 48.7 °F 44.6 °F 30.2 in Calm     82% 0 in
12:57 48.7 °F 44.6 °F 30.2 in Calm     82% 0 in
13:02 48.7 °F 44.6 °F 30.2 in Calm     82% 0 in
13:08 48.7 °F 44.6 °F 30.2 in Calm     82% 0 in
13:13 51.3 °F 44.6 °F 30.2 in Calm     77% 0 in
13:18 51.1 °F 44.6 °F 30.2 in Calm     77% 0 in
13:23 51.1 °F 44.6 °F 30.2 in Calm     77% 0 in
13:28 50.7 °F 44.6 °F 30.2 in Calm     77% 0 in
13:33 50.7 °F 42.8 °F 30.2 in Calm     76% 0 in
13:38 50.5 °F 42.8 °F 30.2 in Calm     76% 0 in
13:43 50.5 °F 42.8 °F 30.2 in Calm     76% 0 in
13:48 50.4 °F 44.6 °F 30.2 in Calm     77% 0 in
13:53 50.4 °F 44.6 °F 30.2 in Calm     78% 0 in
13:58 50.2 °F 42.8 °F 30.2 in Calm     78% 0 in
14:03 50.2 °F 44.6 °F 30.2 in Calm     79% 0 in
14:08 50.2 °F 44.6 °F 30.2 in Calm     80% 0 in
14:13 50 °F 44.6 °F 30.2 in Calm     80% 0 in
14:18 50 °F 44.6 °F 30.2 in Calm     81% 0 in
14:23 50 °F 44.6 °F 30.2 in Calm     81% 0 in
14:28 50 °F 44.6 °F 30.2 in Calm     81% 0 in
14:33 49.8 °F 44.6 °F 30.2 in Calm     82% 0 in
14:38 49.8 °F 44.6 °F 30.2 in Calm     82% 0 in
14:42 49.8 °F 44.6 °F 30.2 in Calm     83% 0 in
14:47 49.8 °F 44.6 °F 30.2 in Calm     83% 0 in
14:52 49.8 °F 46.4 °F 30.2 in Calm     84% 0 in
14:57 49.6 °F 44.6 °F 30.1 in WSW 6.3 mph 6.3 mph 84% 0 in
15:03 49.5 °F 44.6 °F 30.1 in WSW 6.3 mph 6.3 mph 84% 0 in
15:08 49.5 °F 46.4 °F 30.1 in WSW 6.3 mph 6.3 mph 85% 0 in
15:13 49.3 °F 46.4 °F 30.1 in WSW 6.3 mph 6.3 mph 85% 0 in
15:18 48.9 °F 46.4 °F 30.1 in WSW 6.3 mph 6.3 mph 88% 0 in
15:23 48.7 °F 46.4 °F 30.1 in WSW 6.3 mph 6.3 mph 90% 0 in
15:28 48.4 °F 46.4 °F 30.1 in WSW 6.3 mph 6.3 mph 91% 0 in
15:33 48.2 °F 46.4 °F 30.1 in WSW 6.3 mph 6.3 mph 93% 0 in
15:38 48 °F 46.4 °F 30.1 in WSW 6.3 mph 6.3 mph 93% 0 in
15:43 47.8 °F 48.2 °F 30.1 in WSW 6.3 mph 6.3 mph 95% 0 in
15:48 47.8 °F 48.2 °F 30.1 in WSW 6.3 mph 6.3 mph 96% 0 in
15:53 47.7 °F 48.2 °F 30.1 in WSW 6.3 mph 6.3 mph 96% 0 in
15:58 47.7 °F 48.2 °F 30.1 in WSW 6.3 mph 6.3 mph 97% 0 in
16:03 47.7 °F 48.2 °F 30.1 in WSW 6.5 mph 6.5 mph 97% 0 in
16:10 47.7 °F 48.2 °F 30.1 in WSW 6.5 mph 6.5 mph 97% 0 in
16:15 47.3 °F 48.2 °F 30.1 in WSW 6.5 mph 6.5 mph 98% 0.01 in
16:20 47.3 °F 48.2 °F 30.1 in WSW 6.5 mph 6.5 mph 98% 0.01 in
16:25 47.3 °F 48.2 °F 30.1 in WSW 6.5 mph 6.5 mph 98% 0.01 in
16:30 47.3 °F 48.2 °F 30.1 in WSW 6.5 mph 6.5 mph 98% 0.02 in
16:35 47.3 °F 48.2 °F 30.1 in WSW 6.5 mph 6.5 mph 98% 0.02 in
16:40 47.3 °F 48.2 °F 30.1 in WSW 6.5 mph 6.5 mph 98% 0.02 in
16:45 47.3 °F 48.2 °F 30.1 in WSW 6.5 mph 6.5 mph 98% 0.02 in
16:50 47.3 °F 48.2 °F 30.1 in WSW 6.5 mph 6.5 mph 98% 0.04 in
16:55 47.3 °F 48.2 °F 30.1 in WSW 6.5 mph 6.5 mph 98% 0.05 in
17:00 47.3 °F 48.2 °F 30.1 in WSW 6.5 mph 6.5 mph 98% 0.06 in
17:05 47.3 °F 48.2 °F 30.1 in WSW 6.5 mph 6.5 mph 98% 0.06 in
17:10 47.3 °F 48.2 °F 30.1 in WSW 6.5 mph 6.5 mph 98% 0.06 in
17:15 47.3 °F 48.2 °F 30.1 in WSW 6.5 mph 6.5 mph 98% 0.05 in
17:20 47.3 °F 48.2 °F 30.1 in WSW 6.5 mph 6.5 mph 98% 0.05 in
17:25 47.3 °F 48.2 °F 30.1 in WSW 6.5 mph 6.5 mph 98% 0.07 in
17:30 47.3 °F 48.2 °F 30.1 in WSW 6.5 mph 6.5 mph 98% 0.06 in
17:35 47.3 °F 48.2 °F 30.1 in WSW 6.5 mph 6.5 mph 98% 0.06 in
17:36 47.3 °F 48.2 °F 30.1 in WSW 6.5 mph 6.5 mph 98% 0.06 in
17:41 47.5 °F 48.2 °F 30.1 in WSW 6.5 mph 6.5 mph 98% 0.06 in
17:46 47.5 °F 48.2 °F 30.1 in WSW 6.5 mph 6.5 mph 98% 0.09 in
17:51 47.3 °F 48.2 °F 30.1 in WSW 6.5 mph 6.5 mph 98% 0.07 in
17:56 47.5 °F 48.2 °F 30.1 in WSW 6.5 mph 6.5 mph 98% 0.06 in
18:01 47.5 °F 48.2 °F 30.1 in WSW 6.5 mph 6.5 mph 98% 0.05 in
18:06 47.5 °F 48.2 °F 30.1 in WSW 6.5 mph 6.5 mph 98% 0.05 in
18:12 47.5 °F 48.2 °F 30.1 in WSW 6.5 mph 6.5 mph 98% 0.05 in
18:17 47.5 °F 48.2 °F 30.1 in WSW 6.5 mph 6.5 mph 98% 0.05 in
18:22 47.5 °F 48.2 °F 30.1 in WSW 6.5 mph 6.5 mph 98% 0.03 in
18:27 47.5 °F 48.2 °F 30.1 in WSW 6.5 mph 6.5 mph 98% 0.04 in
18:32 47.5 °F 48.2 °F 30.1 in WSW 6.5 mph 6.5 mph 98% 0.04 in
18:37 47.7 °F 48.2 °F 30.1 in WSW 6.5 mph 6.5 mph 98% 0.04 in
18:42 47.8 °F 48.2 °F 30.1 in WSW 6.5 mph 6.5 mph 98% 0.04 in
18:47 47.7 °F 48.2 °F 30.1 in WSW 6.5 mph 6.5 mph 98% 0.01 in
18:52 47.7 °F 48.2 °F 30.1 in WSW 6.5 mph 6.5 mph 98% 0.01 in
18:57 47.5 °F 48.2 °F 30.1 in WSW 6.5 mph 6.5 mph 98% 0.01 in
19:02 47.3 °F 48.2 °F 30.1 in WSW 6.5 mph 6.5 mph 98% 0.01 in
19:07 47.3 °F 48.2 °F 30.1 in WSW 6.5 mph 6.5 mph 98% 0.01 in
19:12 47.1 °F 48.2 °F 30.1 in WSW 6.5 mph 6.5 mph 98% 0.01 in
19:17 46.9 °F 48.2 °F 30.1 in WSW 6.5 mph 6.5 mph 98% 0.01 in
19:22 46.9 °F 48.2 °F 30.1 in WSW 6.5 mph 6.5 mph 98% 0.01 in
19:27 46.8 °F 46.4 °F 30.1 in WSW 6.5 mph 6.5 mph 98% 0 in
19:32 46.8 °F 46.4 °F 30.1 in WSW 6.5 mph 6.5 mph 98% 0 in
19:37 46.8 °F 46.4 °F 30.1 in WSW 6.5 mph 6.5 mph 98% 0 in
19:42 46.8 °F 46.4 °F 30.1 in WSW 6.5 mph 6.5 mph 98% 0 in
19:47 46.6 °F 46.4 °F 30.1 in WSW 6.5 mph 6.5 mph 98% 0 in
19:52 46.6 °F 46.4 °F 30.1 in WSW 6.5 mph 6.5 mph 98% 0 in
19:57 46.6 °F 46.4 °F 30.1 in WSW 6.5 mph 6.5 mph 98% 0 in
20:02 46.6 °F 46.4 °F 30.1 in WSW 6.5 mph 6.5 mph 98% 0 in
20:07 46.6 °F 46.4 °F 30.1 in WSW 6.5 mph 6.5 mph 98% 0 in
20:12 46.6 °F 46.4 °F 30.1 in WSW 6.5 mph 6.5 mph 98% 0 in
20:17 46.6 °F 46.4 °F 30.1 in WSW 6.5 mph 6.5 mph 98% 0 in
20:22 46.4 °F 46.4 °F 30.1 in WSW 6.5 mph 6.5 mph 98% 0 in
20:27 46.4 °F 46.4 °F 30.1 in WSW 6.5 mph 6.5 mph 98% 0 in
20:32 46.4 °F 46.4 °F 30.1 in WSW 6.5 mph 6.5 mph 98% 0 in
20:37 46.4 °F 46.4 °F 30.1 in WSW 6.5 mph 6.5 mph 98% 0 in
20:42 46.4 °F 46.4 °F 30.1 in WSW 6.5 mph 6.5 mph 98% 0 in
20:47 46.2 °F 46.4 °F 30.1 in WSW 6.5 mph 6.5 mph 98% 0 in
20:52 46.2 °F 46.4 °F 30.1 in WSW 6.5 mph 6.5 mph 98% 0 in
20:57 46.2 °F 46.4 °F 30.1 in WSW 6.5 mph 6.5 mph 98% 0 in
21:02 46.2 °F 46.4 °F 30.1 in WSW 6.5 mph 6.5 mph 98% 0 in
21:07 46.2 °F 46.4 °F 30.1 in WSW 6.5 mph 6.5 mph 98% 0 in
21:12 46.2 °F 46.4 °F 30.1 in WSW 6.5 mph 6.5 mph 98% 0 in
21:17 46.2 °F 46.4 °F 30.1 in WSW 6.5 mph 6.5 mph 98% 0 in
21:22 46.2 °F 46.4 °F 30.1 in WSW 6.5 mph 6.5 mph 98% 0 in
21:27 46.2 °F 46.4 °F 30.1 in WSW 6.5 mph 6.5 mph 98% 0 in
21:32 46 °F 46.4 °F 30.1 in WSW 6.5 mph 6.5 mph 98% 0 in
21:38 46 °F 46.4 °F 30.1 in WSW 6.5 mph 6.5 mph 98% 0 in
21:43 46 °F 46.4 °F 30.1 in WSW 6.5 mph 6.5 mph 98% 0 in
21:48 46 °F 46.4 °F 30.1 in WSW 6.5 mph 6.5 mph 98% 0 in
21:53 46 °F 46.4 °F 30.1 in WSW 6.5 mph 6.5 mph 98% 0 in
21:58 46 °F 46.4 °F 30.1 in WSW 6.5 mph 6.5 mph 98% 0 in
22:03 45.9 °F 46.4 °F 30.1 in WSW 6.5 mph 6.5 mph 98% 0.02 in
22:08 45.9 °F 46.4 °F 30.1 in WSW 6.5 mph 6.5 mph 98% 0.02 in
22:13 45.9 °F 46.4 °F 30.1 in WSW 6.5 mph 6.5 mph 98% 0.02 in
22:14 45.9 °F 46.4 °F 30.1 in WSW 6.5 mph 6.5 mph 98% 0.02 in
22:19 45.9 °F 46.4 °F 30.1 in WSW 6.5 mph 6.5 mph 98% 0.02 in
22:24 45.9 °F 46.4 °F 30.1 in WSW 6.5 mph 6.5 mph 98% 0.02 in
22:29 45.7 °F 46.4 °F 30.1 in WSW 6.5 mph 6.5 mph 98% 0.02 in
22:34 45.7 °F 46.4 °F 30.1 in WSW 6.5 mph 6.5 mph 98% 0.02 in
22:39 45.5 °F 46.4 °F 30.1 in WSW 6.5 mph 6.5 mph 98% 0.02 in
22:44 45.5 °F 46.4 °F 30 in WSW 6.5 mph 6.5 mph 98% 0.02 in
22:49 45.3 °F 44.6 °F 30 in WSW 6.5 mph 6.5 mph 98% 0.02 in
22:54 45.3 °F 44.6 °F 30 in WSW 6.5 mph 6.5 mph 98% 0.02 in
22:59 45.1 °F 44.6 °F 30.1 in WSW 6.5 mph 6.5 mph 98% 0.02 in
23:00 45.1 °F 44.6 °F 30.1 in WSW 6.5 mph 6.5 mph 98% 0 in
23:06 45.1 °F 44.6 °F 30.1 in WSW 6.5 mph 6.5 mph 98% 0 in
23:11 45.1 °F 44.6 °F 30.1 in WSW 6.5 mph 6.5 mph 98% 0 in
23:16 45.1 °F 44.6 °F 30.1 in WSW 6.5 mph 6.5 mph 98% 0 in
23:21 45.1 °F 44.6 °F 30.1 in WSW 6.5 mph 6.5 mph 98% 0 in
23:26 45.1 °F 44.6 °F 30.1 in WSW 6.5 mph 6.5 mph 98% 0 in
23:31 45.1 °F 44.6 °F 30.1 in WSW 6.5 mph 6.5 mph 98% 0 in
23:36 45 °F 44.6 °F 30.1 in WSW 6.5 mph 6.5 mph 98% 0 in
23:41 45 °F 44.6 °F 30 in WSW 6.5 mph 6.5 mph 98% 0 in
23:46 44.8 °F 44.6 °F 30 in WSW 6.5 mph 6.5 mph 98% 0 in
23:51 45 °F 44.6 °F 30 in WSW 6.5 mph 6.5 mph 98% 0 in
23:56 44.8 °F 44.6 °F 30 in WSW 6.5 mph 6.5 mph 98% 0 in
Données Historique de Météo Turbie

Mise a jour : 24/05/2018 10:14:16
Généré par Cumulus 1.9.4 (1099)